Find KUIPER-00453

NORAD ID: 68947 Int'l Des: 2026-098AE Owner: KUIP Country: US Constellation: amazon-leo operational
LEOCIRCULAR

当前视图

正在加载3D地球...

About KUIPER-00453

KUIPER-00453 (NORAD 68947) is a amazon-leo constellation satellite launched Apr 30, 2026 by KUIP of US. It operates in LEO, CIRCULAR orbit with a mass of 490.00 kg.

关于 KUIPER-00453

正在加载描述...

即将过境

Passes for default location (London). Set your location on the main map for personalized predictions.

高度历史

Loading altitude history...

两行轨道根数

1 68947U 26098AE 26170.39687474 .00028722 00000-0 78902-3 0 9993
2 68947 51.8747 56.5742 0003271 208.8689 151.2117 15.36993746 7694
Epoch: Jun 19, 2026 • Age: 20 hours

当前状态

高度 467.5 km
速度 7.63 km/s
星下点 -38.51°S, 21.91°E
发射日期 Apr 30, 2026
运行时间 0.1 years
类型 internet

技术详情

分类 Payload
质量 490.00 kg
干质量 490.00 kg
总质量 490.00 kg
长度 1.80 m
直径 0.70 m
跨度 5.00 m
形状 Box + 2 pan
制造商 KUIP
平台类型 Kuiper
阶段状态 In Orbit
所有者/国家 KUIP/US

Most Searched